Weather History for Bentonville, AR

Change the Weather History Date:

Monday, January 6, 2014

  Actual Average Record
Temperature  
Mean Temperature 2 °F -  
Max Temperature 8 °F 42 °F 63 °F (1984)
Min Temperature -4 °F 23 °F -4 °F (2014)
Degree Days  
Heating Degree Days 63    
Moisture  
Dew Point -10 °F    
Average Humidity 56    
Maximum Humidity 78    
Minimum Humidity 42    
Precipitation  
Precipitation 0.00 in - - ()
Sea Level Pressure  
Sea Level Pressure 30.50 in    
Wind  
Wind Speed 8 mph (WNW)    
Max Wind Speed 18 mph    
Max Gust Speed 24 mph    
Visibility 10 miles    
Events      
Averages and records for this station are not official NWS values.
T = Trace of Precipitation, MM = Missing Value Source: NWS Daily Summary

Daily Weather History Graph

Daily Weather History Graph

Search for Another Location

Airport:

Trip Planner

Search our weather history database for the weather conditions in past years. The results will help you decide how hot, cold, wet, or windy it might be!

Date:

Astronomy

Jan. 06, 2014 Rise Set
Actual Time 7:28 AM CST 5:16 PM CST
Civil Twilight 7:00 AM CST 5:45 PM CST
Nautical Twilight 6:28 AM CST 6:17 PM CST
Astronomical Twilight 5:57 AM CST 6:48 PM CST
Moon 10:55 AM CST (1/6) 11:39 PM CST (1/6)
Length of Visible Light 10h 44m
Length of Day
9h 48m
Waxing Crescent, 35% of the Moon is Illuminated
Jan 6
Waxing Crescent
Jan 7
First Quarter
Jan 15
Full
Jan 23
Last Quarter
Jan 30
New

Hourly Weather History & Observations

Time (CST) Temp. Windchill Dew Point Humidity Pressure Visibility Wind Dir Wind Speed Gust Speed Precip Events Conditions
12:15 AM 6.8 °F -4.8 °F -5.8 °F 56% 30.44 in 10.0 mi NNW 6.9 mph - N/A   Clear
12:35 AM 6.8 °F -3.5 °F -5.8 °F 56% 30.44 in 10.0 mi NNW 5.8 mph - N/A   Clear
12:55 AM 6.8 °F -2.0 °F -5.8 °F 56% 30.45 in 10.0 mi NNW 4.6 mph - N/A   Clear
1:15 AM 5.0 °F -2.1 °F -7.6 °F 56% 30.45 in 10.0 mi NW 3.5 mph - N/A   Clear
1:35 AM 3.2 °F -6.2 °F -7.6 °F 61% 30.45 in 10.0 mi WNW 4.6 mph - N/A   Clear
1:55 AM 3.2 °F -6.2 °F -5.8 °F 66% 30.46 in 10.0 mi WNW 4.6 mph - N/A   Clear
2:15 AM 1.4 °F -8.3 °F -7.6 °F 66% 30.47 in 10.0 mi WNW 4.6 mph - N/A   Clear
2:35 AM 1.4 °F -9.9 °F -5.8 °F 72% 30.47 in 10.0 mi WNW 5.8 mph - N/A   Clear
2:55 AM 1.4 °F -8.3 °F -7.6 °F 66% 30.48 in 10.0 mi WNW 4.6 mph - N/A   Clear
3:15 AM 1.4 °F -11.3 °F -5.8 °F 72% 30.49 in 10.0 mi WNW 6.9 mph - N/A   Clear
3:35 AM 1.4 °F -11.3 °F -5.8 °F 72% 30.49 in 10.0 mi NW 6.9 mph - N/A   Clear
3:55 AM 1.4 °F -13.5 °F -5.8 °F 72% 30.49 in 10.0 mi NW 9.2 mph - N/A   Clear
4:15 AM 3.2 °F -7.8 °F -7.6 °F 61% 30.48 in 10.0 mi NW 5.8 mph - N/A   Clear
4:35 AM 1.4 °F -9.9 °F -7.6 °F 66% 30.48 in 10.0 mi West 5.8 mph - N/A   Clear
4:55 AM 1.4 °F -9.9 °F -7.6 °F 66% 30.48 in 10.0 mi West 5.8 mph - N/A   Clear
5:15 AM 1.4 °F -14.5 °F -7.6 °F 66% 30.49 in 10.0 mi WNW 10.4 mph - N/A   Clear
5:35 AM 1.4 °F -13.5 °F -9.4 °F 61% 30.49 in 10.0 mi NW 9.2 mph - N/A   Clear
5:55 AM 1.4 °F -16.1 °F -11.2 °F 56% 30.50 in 10.0 mi NW 12.7 mph 18.4 mph N/A   Clear
6:15 AM -0.4 °F -17.6 °F -11.2 °F 60% 30.51 in 10.0 mi NNW 11.5 mph 17.3 mph N/A   Clear
6:35 AM -0.4 °F -19.9 °F -16.6 °F 46% 30.51 in 10.0 mi NNW 15.0 mph 19.6 mph N/A   Clear
6:55 AM -2.2 °F -18.0 °F -20.2 °F 42% 30.52 in 10.0 mi NNW 9.2 mph 16.1 mph N/A   Clear
7:15 AM -2.2 °F -18.9 °F -20.2 °F 42% 30.52 in 10.0 mi NNW 10.4 mph 17.3 mph N/A   Clear
7:35 AM -2.2 °F -18.0 °F -20.2 °F 42% 30.53 in 10.0 mi NNW 9.2 mph 17.3 mph N/A   Clear
7:55 AM -4.0 °F -19.0 °F -18.4 °F 50% 30.54 in 10.0 mi NW 8.1 mph - N/A   Clear
8:15 AM -2.2 °F -14.2 °F -18.4 °F 46% 30.55 in 10.0 mi NW 5.8 mph - N/A   Clear
8:35 AM -2.2 °F -15.6 °F -18.4 °F 46% 30.56 in 10.0 mi NW 6.9 mph - N/A   Clear
8:55 AM -2.2 °F -16.8 °F -18.4 °F 46% 30.57 in 10.0 mi NW 8.1 mph - N/A   Clear
9:15 AM -2.2 °F -18.9 °F -16.6 °F 50% 30.57 in 10.0 mi NW 10.4 mph - N/A   Clear
9:35 AM -0.4 °F -17.6 °F -16.6 °F 46% 30.58 in 10.0 mi WNW 11.5 mph - N/A   Clear
9:55 AM -0.4 °F -14.7 °F -14.8 °F 51% 30.58 in 10.0 mi NW 8.1 mph - N/A   Clear
10:15 AM 1.4 °F -17.6 °F -14.8 °F 47% 30.58 in 10.0 mi WNW 15.0 mph - N/A   Clear
10:35 AM 1.4 °F -16.9 °F -14.8 °F 47% 30.58 in 10.0 mi WNW 13.8 mph 18.4 mph N/A   Clear
10:55 AM 1.4 °F -15.3 °F -13.0 °F 51% 30.58 in 10.0 mi NW 11.5 mph - N/A   Clear
11:15 AM 3.2 °F -13.9 °F -13.0 °F 47% 30.57 in 10.0 mi WNW 12.7 mph 17.3 mph N/A   Clear
11:35 AM 3.2 °F -14.6 °F -13.0 °F 47% 30.55 in 10.0 mi WNW 13.8 mph 18.4 mph N/A   Clear
11:55 AM 3.2 °F -14.6 °F -11.2 °F 51% 30.54 in 10.0 mi WNW 13.8 mph 20.7 mph N/A   Clear
12:15 PM 3.2 °F -13.1 °F -11.2 °F 51% 30.53 in 10.0 mi West 11.5 mph - N/A   Clear
12:35 PM 5.0 °F -13.6 °F -9.4 °F 52% 30.53 in 10.0 mi WNW 16.1 mph 19.6 mph N/A   Clear
12:55 PM 6.8 °F -8.6 °F -11.2 °F 44% 30.52 in 10.0 mi West 11.5 mph - N/A   Clear
1:15 PM 6.8 °F -11.3 °F -9.4 °F 48% 30.52 in 10.0 mi WNW 16.1 mph 21.9 mph N/A   Clear
1:35 PM 6.8 °F -9.3 °F -9.4 °F 48% 30.51 in 10.0 mi West 12.7 mph - N/A   Clear
1:55 PM 6.8 °F -12.4 °F -9.4 °F 48% 30.51 in 10.0 mi WNW 18.4 mph 24.2 mph N/A   Clear
2:15 PM 6.8 °F -10.0 °F -9.4 °F 48% 30.51 in 10.0 mi WNW 13.8 mph - N/A   Clear
2:35 PM 8.6 °F -6.3 °F -9.4 °F 44% 30.50 in 10.0 mi West 11.5 mph - N/A   Clear
2:55 PM 8.6 °F -7.7 °F -7.6 °F 48% 30.50 in 10.0 mi West 13.8 mph 19.6 mph N/A   Clear
3:15 PM 8.6 °F -6.3 °F -9.4 °F 44% 30.49 in 10.0 mi West 11.5 mph - N/A   Clear
3:35 PM 8.6 °F -7.7 °F -7.6 °F 48% 30.49 in 10.0 mi WNW 13.8 mph - N/A   Clear
3:55 PM 8.6 °F -6.3 °F -7.6 °F 48% 30.49 in 10.0 mi WNW 11.5 mph - N/A   Clear
4:15 PM 8.6 °F -6.3 °F -7.6 °F 48% 30.49 in 10.0 mi West 11.5 mph 17.3 mph N/A   Clear
4:35 PM 8.6 °F -3.7 °F -7.6 °F 48% 30.49 in 10.0 mi West 8.1 mph - N/A   Clear
4:55 PM 8.6 °F -3.7 °F -7.6 °F 48% 30.48 in 10.0 mi West 8.1 mph - N/A   Clear
5:15 PM 8.6 °F 0.1 °F -7.6 °F 48% 30.47 in 10.0 mi West 4.6 mph - N/A   Clear
5:35 PM 6.8 °F -3.5 °F -7.6 °F 52% 30.46 in 10.0 mi West 5.8 mph - N/A   Clear
5:55 PM 6.8 °F -0.1 °F -7.6 °F 52% 30.46 in 10.0 mi West 3.5 mph - N/A   Clear
6:15 PM 5.0 °F -2.1 °F -7.6 °F 56% 30.46 in 10.0 mi West 3.5 mph - N/A   Clear
6:35 PM 5.0 °F -2.1 °F -5.8 °F 61% 30.47 in 10.0 mi West 3.5 mph - N/A   Clear
6:55 PM 5.0 °F -4.1 °F -7.6 °F 56% 30.47 in 10.0 mi West 4.6 mph - N/A   Clear
7:15 PM 6.8 °F -0.1 °F -5.8 °F 56% 30.47 in 10.0 mi West 3.5 mph - N/A   Clear
7:35 PM 5.0 °F -4.1 °F -7.6 °F 56% 30.48 in 10.0 mi West 4.6 mph - N/A   Clear
7:55 PM 5.0 °F -2.1 °F -7.6 °F 56% 30.49 in 10.0 mi WSW 3.5 mph - N/A   Clear
8:15 PM 5.0 °F -2.1 °F -7.6 °F 56% 30.49 in 10.0 mi West 3.5 mph - N/A   Clear
8:35 PM 3.2 °F - -7.6 °F 61% 30.49 in 10.0 mi Calm Calm - N/A   Clear
8:55 PM 3.2 °F - -5.8 °F 66% 30.48 in 10.0 mi Calm Calm - N/A   Clear
9:15 PM 1.4 °F - -7.6 °F 66% 30.48 in 10.0 mi Calm Calm - N/A   Clear
9:35 PM 1.4 °F -8.3 °F -4.0 °F 78% 30.48 in 10.0 mi South 4.6 mph - N/A   Clear
9:55 PM 3.2 °F -4.2 °F -5.8 °F 66% 30.48 in 10.0 mi SSW 3.5 mph - N/A   Clear
10:15 PM 1.4 °F -9.9 °F -5.8 °F 72% 30.47 in 10.0 mi South 5.8 mph - N/A   Clear
10:35 PM 3.2 °F -4.2 °F -5.8 °F 66% 30.47 in 10.0 mi SSW 3.5 mph - N/A   Clear
10:55 PM 1.4 °F -6.2 °F -5.8 °F 72% 30.46 in 10.0 mi South 3.5 mph - N/A   Clear
11:15 PM 1.4 °F -8.3 °F -5.8 °F 72% 30.45 in 10.0 mi SSE 4.6 mph - N/A   Clear
11:35 PM 1.4 °F -8.3 °F -5.8 °F 72% 30.44 in 10.0 mi SSE 4.6 mph - N/A   Clear
11:55 PM 1.4 °F -9.9 °F -5.8 °F 72% 30.44 in 10.0 mi South 5.8 mph - N/A   Clear